When you browse on this site, cookies collect data to enhance your experience and personalize the content and advertising you see.
Visit our Privacy Policy to learn more. By continuing to use the site, you agree to this use of cookies and data.
  • Em Portugal
  • Lista de países
  • Para 7 dias
  • Temperatura da água
  • Mapas de satélite
  • Mapa do tempo
  • Widgets de tempo
  • user-avatar
    Iniciar Sessão

    Previsão horária em Evlakh

    Hoje, 20 Julho, Sábado

    Tempo Temperatura Precipitação Vento Pressão Humidade
    00:00 +30°C° 0 mm 5 m/s 759 mmHg 44%
    01:00 +29°C° 0 mm 4 m/s 759 mmHg 46%
    02:00 +29°C° 0 mm 2 m/s 759 mmHg 47%
    03:00 +28°C° 0 mm 2 m/s 758 mmHg 49%
    04:00 +28°C° 0 mm 1 m/s 759 mmHg 48%
    05:00 +29°C° 0 mm 1 m/s 760 mmHg 47%
    06:00 +29°C° 0 mm 1 m/s 760 mmHg 46%
    07:00 +31°C° 0 mm 1 m/s 760 mmHg 42%
    08:00 +32°C° 0 mm 1 m/s 760 mmHg 39%
    09:00 +35°C° 0 mm 2 m/s 760 mmHg 35%
    10:00 +37°C° 0 mm 3 m/s 760 mmHg 32%
    11:00 +38°C° 0 mm 4 m/s 760 mmHg 29%
    12:00 +41°C° 0 mm 5 m/s 760 mmHg 26%
    13:00 +42°C° 0 mm 5 m/s 759 mmHg 25%
    14:00 +42°C° 0 mm 5 m/s 759 mmHg 23%
    15:00 +43°C° 0 mm 5 m/s 758 mmHg 22%
    16:00 +42°C° 0 mm 6 m/s 759 mmHg 23%
    17:00 +42°C° 0 mm 6 m/s 759 mmHg 23%
    18:00 +41°C° 0 mm 6 m/s 759 mmHg 23%
    19:00 +39°C° 0 mm 7 m/s 759 mmHg 27%
    20:00 +36°C° 0 mm 7 m/s 760 mmHg 31%
    21:00 +34°C° 0 mm 8 m/s 760 mmHg 35%
    22:00 +33°C° 0 mm 6 m/s 760 mmHg 36%
    23:00 +33°C° 0 mm 5 m/s 761 mmHg 37%

    Amanhã, 21 Julho, Domingo

    Tempo Temperatura Precipitação Vento Pressão Humidade
    00:00 +32°C° 0 mm 4 m/s 761 mmHg 37%
    01:00 +32°C° 0 mm 4 m/s 761 mmHg 38%
    02:00 +30°C° 0 mm 4 m/s 761 mmHg 39%
    03:00 +29°C° 0 mm 4 m/s 761 mmHg 40%
    04:00 +30°C° 0 mm 4 m/s 761 mmHg 40%
    05:00 +30°C° 0 mm 4 m/s 761 mmHg 39%
    06:00 +30°C° 0 mm 5 m/s 761 mmHg 38%
    07:00 +33°C° 0 mm 5 m/s 760 mmHg 35%
    08:00 +35°C° 0 mm 6 m/s 760 mmHg 31%
    09:00 +38°C° 0 mm 6 m/s 760 mmHg 27%
    10:00 +40°C° 0 mm 6 m/s 760 mmHg 25%
    11:00 +41°C° 0 mm 7 m/s 759 mmHg 23%
    12:00 +43°C° 0 mm 7 m/s 759 mmHg 21%
    13:00 +44°C° 0 mm 7 m/s 758 mmHg 20%
    14:00 +44°C° 0 mm 6 m/s 758 mmHg 20%
    15:00 +45°C° 0 mm 6 m/s 757 mmHg 19%
    16:00 +45°C° 0 mm 6 m/s 757 mmHg 19%
    17:00 +44°C° 0 mm 6 m/s 757 mmHg 20%
    18:00 +44°C° 0 mm 7 m/s 757 mmHg 20%
    19:00 +40°C° 0 mm 6 m/s 757 mmHg 26%
    20:00 +38°C° 0 mm 6 m/s 758 mmHg 32%
    21:00 +34°C° 0 mm 6 m/s 758 mmHg 37%
    22:00 +33°C° 0 mm 5 m/s 758 mmHg 44%
    23:00 +32°C° 0 mm 4 m/s 758 mmHg 50%

    Depois de amanhã, 22 Julho, Segunda-feira

    Tempo Temperatura Precipitação Vento Pressão Humidade
    00:00 +30°C° 0 mm 4 m/s 758 mmHg 56%
    01:00 +29°C° 0 mm 3 m/s 757 mmHg 59%
    02:00 +28°C° 0 mm 2 m/s 757 mmHg 62%
    03:00 +28°C° 0 mm 2 m/s 757 mmHg 65%
    04:00 +28°C° 0 mm 1 m/s 757 mmHg 64%
    05:00 +28°C° 0 mm 1 m/s 757 mmHg 63%
    06:00 +29°C° 0 mm 1 m/s 757 mmHg 61%
    07:00 +31°C° 0 mm 1 m/s 756 mmHg 54%
    08:00 +32°C° 0 mm 1 m/s 756 mmHg 47%
    09:00 +35°C° 0 mm 2 m/s 756 mmHg 41%
    10:00 +37°C° 0 mm 2 m/s 756 mmHg 36%
    11:00 +39°C° 0 mm 2 m/s 755 mmHg 32%
    12:00 +40°C° 0 mm 3 m/s 755 mmHg 28%
    13:00 +42°C° 0 mm 3 m/s 755 mmHg 26%
    14:00 +43°C° 0 mm 4 m/s 754 mmHg 24%
    15:00 +45°C° 0 mm 5 m/s 754 mmHg 22%
    16:00 +44°C° 0 mm 6 m/s 754 mmHg 23%
    17:00 +43°C° 0 mm 8 m/s 754 mmHg 25%
    18:00 +42°C° 0 mm 9 m/s 754 mmHg 27%
    19:00 +38°C° 0 mm 8 m/s 755 mmHg 32%
    20:00 +35°C° 0 mm 7 m/s 755 mmHg 38%
    21:00 +33°C° 0 mm 6 m/s 756 mmHg 44%
    22:00 +32°C° 0 mm 5 m/s 756 mmHg 45%
    23:00 +32°C° 0 mm 5 m/s 756 mmHg 47%

    23 Julho, Terça-feira

    Tempo Temperatura Precipitação Vento Pressão Humidade
    00:00 +30°C° 0 mm 4 m/s 756 mmHg 49%
    01:00 +30°C° 0 mm 3 m/s 756 mmHg 50%
    02:00 +29°C° 0 mm 2 m/s 756 mmHg 51%
    03:00 +29°C° 0 mm 2 m/s 756 mmHg 52%
    04:00 +29°C° 0 mm 2 m/s 757 mmHg 51%
    05:00 +30°C° 0 mm 2 m/s 757 mmHg 51%
    06:00 +30°C° 0 mm 2 m/s 757 mmHg 51%
    07:00 +32°C° 0 mm 2 m/s 757 mmHg 46%
    08:00 +34°C° 0 mm 2 m/s 757 mmHg 42%
    09:00 +36°C° 0 mm 2 m/s 756 mmHg 37%
    10:00 +37°C° 0 mm 3 m/s 756 mmHg 34%
    11:00 +40°C° 0 mm 4 m/s 756 mmHg 30%
    12:00 +41°C° 0 mm 5 m/s 755 mmHg 27%
    13:00 +42°C° 0 mm 5 m/s 755 mmHg 26%
    14:00 +43°C° 0 mm 5 m/s 754 mmHg 25%
    15:00 +44°C° 0 mm 6 m/s 754 mmHg 24%
    16:00 +43°C° 0 mm 7 m/s 754 mmHg 27%
    17:00 +41°C° 0 mm 7 m/s 754 mmHg 29%
    18:00 +40°C° 0 mm 8 m/s 754 mmHg 32%
    19:00 +38°C° 0 mm 7 m/s 755 mmHg 36%
    20:00 +35°C° 0 mm 6 m/s 755 mmHg 40%
    21:00 +33°C° 0 mm 5 m/s 755 mmHg 43%
    22:00 +32°C° 0 mm 4 m/s 755 mmHg 45%
    23:00 +30°C° 0 mm 4 m/s 755 mmHg 47%

    24 Julho, Quarta-feira

    Tempo Temperatura Precipitação Vento Pressão Humidade
    00:00 +30°C° 0 mm 3 m/s 755 mmHg 49%
    01:00 +29°C° 0 mm 3 m/s 755 mmHg 50%
    02:00 +29°C° 0 mm 3 m/s 755 mmHg 51%
    03:00 +28°C° 0 mm 3 m/s 755 mmHg 53%
    04:00 +28°C° 0 mm 3 m/s 755 mmHg 52%
    05:00 +29°C° 0 mm 3 m/s 755 mmHg 52%
    06:00 +29°C° 0 mm 3 m/s 755 mmHg 52%
    07:00 +31°C° 0 mm 3 m/s 755 mmHg 45%
    08:00 +34°C° 0 mm 3 m/s 755 mmHg 39%
    09:00 +36°C° 0 mm 3 m/s 755 mmHg 33%
    10:00 +37°C° 0 mm 3 m/s 755 mmHg 30%
    11:00 +38°C° 0 mm 3 m/s 754 mmHg 27%
    12:00 +41°C° 0 mm 4 m/s 754 mmHg 25%
    13:00 +42°C° 0 mm 3 m/s 753 mmHg 24%
    14:00 +42°C° 0 mm 3 m/s 753 mmHg 23%
    15:00 +43°C° 0 mm 3 m/s 752 mmHg 22%
    16:00 +43°C° 0 mm 3 m/s 753 mmHg 23%
    17:00 +42°C° 0 mm 3 m/s 753 mmHg 23%
    18:00 +42°C° 0 mm 4 m/s 753 mmHg 23%
    19:00 +40°C° 0 mm 5 m/s 753 mmHg 29%
    20:00 +36°C° 0 mm 6 m/s 754 mmHg 34%
    21:00 +33°C° 0 mm 7 m/s 754 mmHg 39%
    22:00 +32°C° 0 mm 6 m/s 754 mmHg 43%
    23:00 +30°C° 0 mm 4 m/s 754 mmHg 47%

    25 Julho, Quinta-feira

    Tempo Temperatura Precipitação Vento Pressão Humidade
    00:00 +29°C° 0 mm 3 m/s 755 mmHg 51%
    01:00 +29°C° 0 mm 3 m/s 754 mmHg 52%
    02:00 +28°C° 0 mm 2 m/s 754 mmHg 54%
    03:00 +28°C° 0 mm 1 m/s 754 mmHg 55%
    04:00 +28°C° 0 mm 1 m/s 754 mmHg 54%
    05:00 +29°C° 0 mm 1 m/s 754 mmHg 52%
    06:00 +29°C° 0 mm 1 m/s 754 mmHg 51%
    07:00 +31°C° 0 mm 1 m/s 754 mmHg 46%
    08:00 +33°C° 0 mm 1 m/s 754 mmHg 40%
    09:00 +36°C° 0 mm 2 m/s 754 mmHg 35%
    10:00 +37°C° 0 mm 2 m/s 754 mmHg 32%
    11:00 +39°C° 0 mm 3 m/s 753 mmHg 28%
    12:00 +42°C° 0 mm 3 m/s 753 mmHg 25%
    13:00 +43°C° 0 mm 3 m/s 752 mmHg 23%
    14:00 +44°C° 0 mm 4 m/s 752 mmHg 22%
    15:00 +45°C° 0 mm 4 m/s 751 mmHg 20%
    16:00 +45°C° 0 mm 5 m/s 751 mmHg 20%
    17:00 +45°C° 0 mm 6 m/s 751 mmHg 20%
    18:00 +45°C° 0 mm 6 m/s 751 mmHg 21%
    19:00 +41°C° 0 mm 6 m/s 752 mmHg 25%
    20:00 +38°C° 0 mm 6 m/s 752 mmHg 29%
    21:00 +35°C° 0 mm 5 m/s 753 mmHg 33%
    22:00 +34°C° 0 mm 4 m/s 753 mmHg 36%
    23:00 +33°C° 0 mm 3 m/s 753 mmHg 38%
    Mostrar mais